| time (UTC) | temp C | wind direction | speed KPH | gust KPH | rain 1hr cm | rain 24hr cm | rain mn cm | humidity % | barometer mb |
| 20260508181443 | 11 | 0 | 0.0 | 0.0 | 0.00 | 1.63 | 1.22 | 86 | 1017.3 |
| 20260508180443 | 11 | 0 | 0.0 | 0.0 | 0.00 | 1.75 | 1.22 | 87 | 1017.1 |
| 20260508175943 | 11 | 0 | 0.0 | 0.0 | 0.00 | 1.75 | 1.22 | 86 | 1017.1 |
| 20260508173943 | 11 | 0 | 0.0 | 0.0 | 0.00 | 1.78 | 1.22 | 87 | 1016.9 |
| 20260508173443 | 12 | 0 | 0.0 | 0.0 | 0.00 | 1.78 | 1.22 | 86 | 1016.9 |
| 20260508172443 | 12 | 0 | 0.0 | 0.0 | 0.00 | 1.80 | 1.22 | 85 | 1016.8 |
| 20260508171943 | 12 | 0 | 0.0 | 0.0 | 0.00 | 1.83 | 1.22 | 85 | 1016.7 |
| 20260508170943 | 12 | 0 | 0.0 | 0.0 | 0.00 | 2.11 | 1.22 | 84 | 1016.7 |
| 20260508170443 | 12 | 0 | 0.0 | 0.0 | 0.00 | 2.21 | 1.22 | 84 | 1016.8 |
| 20260508165942 | 12 | 0 | 0.0 | 0.0 | 0.00 | 2.21 | 1.22 | 84 | 1016.8 |
| 20260508165442 | 12 | 0 | 0.0 | 0.0 | 0.00 | 2.21 | 1.22 | 84 | 1016.7 |
| 20260508164943 | 12 | 0 | 0.0 | 0.0 | 0.00 | 2.21 | 1.22 | 82 | 1016.7 |
| 20260508164443 | 12 | 0 | 0.0 | 0.0 | 0.00 | 2.21 | 1.22 | 82 | 1016.8 |
| 20260508163443 | 12 | 0 | 0.0 | 0.0 | 0.00 | 2.21 | 1.22 | 82 | 1016.7 |
| 20260508162942 | 12 | 0 | 0.0 | 0.0 | 0.00 | 2.21 | 1.22 | 84 | 1016.7 |
| 20260508162444 | 12 | 0 | 0.0 | 0.0 | 0.00 | 2.21 | 1.22 | 82 | 1016.7 |
| 20260508161943 | 12 | 0 | 0.0 | 0.0 | 0.00 | 2.21 | 1.22 | 82 | 1016.6 |
| 20260508160943 | 12 | 0 | 0.0 | 0.0 | 0.00 | 2.21 | 1.22 | 81 | 1016.7 |
| 20260508160443 | 12 | 0 | 0.0 | 0.0 | 0.00 | 2.21 | 1.22 | 81 | 1016.6 |
| 20260508155944 | 12 | 0 | 0.0 | 0.0 | 0.00 | 2.21 | 1.22 | 80 | 1016.7 |
| 20260508155443 | 12 | 0 | 0.0 | 0.0 | 0.00 | 2.21 | 1.22 | 81 | 1016.7 |
| 20260508154943 | 12 | 0 | 0.0 | 0.0 | 0.00 | 2.21 | 1.22 | 81 | 1016.8 |
| 20260508154443 | 12 | 0 | 0.0 | 0.0 | 0.00 | 2.21 | 1.22 | 80 | 1016.8 |
| 20260508152943 | 13 | 0 | 0.0 | 0.0 | 0.00 | 2.21 | 1.22 | 79 | 1016.8 |
| 20260508152443 | 12 | 0 | 0.0 | 0.0 | 0.00 | 2.21 | 1.22 | 81 | 1016.8 |
| 20260508151943 | 12 | 0 | 0.0 | 0.0 | 0.00 | 2.21 | 1.22 | 81 | 1016.8 |
| 20260508151442 | 12 | 0 | 0.0 | 0.0 | 0.00 | 2.21 | 1.22 | 81 | 1016.8 |
| 20260508150443 | 12 | 0 | 0.0 | 0.0 | 0.00 | 2.21 | 1.22 | 82 | 1016.7 |
| 20260508145943 | 12 | 0 | 0.0 | 0.0 | 0.00 | 2.21 | 1.22 | 83 | 1016.7 |
| 20260508145443 | 12 | 0 | 0.0 | 0.0 | 0.00 | 2.21 | 1.22 | 81 | 1016.7 |
| 20260508144943 | 12 | 0 | 0.0 | 0.0 | 0.00 | 2.21 | 1.22 | 82 | 1016.7 |
| 20260508143443 | 12 | 0 | 0.0 | 0.0 | 0.00 | 2.21 | 1.22 | 83 | 1016.7 |
| 20260508142943 | 12 | 0 | 0.0 | 0.0 | 0.00 | 2.21 | 1.22 | 83 | 1016.8 |
| 20260508142444 | 12 | 0 | 0.0 | 0.0 | 0.00 | 2.21 | 1.22 | 84 | 1016.7 |
| 20260508141943 | 11 | 0 | 0.0 | 0.0 | 0.00 | 2.21 | 1.22 | 84 | 1016.8 |
| 20260508141443 | 12 | 0 | 0.0 | 0.0 | 0.00 | 2.21 | 1.22 | 84 | 1016.8 |
| 20260508140945 | 12 | 0 | 0.0 | 0.0 | 0.00 | 2.21 | 1.22 | 84 | 1016.7 |
| 20260508140443 | 12 | 0 | 0.0 | 0.0 | 0.00 | 2.21 | 1.22 | 84 | 1016.6 |
| 20260508135943 | 12 | 0 | 0.0 | 0.0 | 0.00 | 2.21 | 1.22 | 83 | 1016.7 |
| 20260508134943 | 12 | 0 | 0.0 | 0.0 | 0.00 | 2.21 | 1.22 | 85 | 1016.7 |
| 20260508134443 | 12 | 0 | 0.0 | 0.0 | 0.00 | 2.21 | 1.22 | 85 | 1016.7 |
| 20260508133944 | 12 | 0 | 0.0 | 0.0 | 0.00 | 2.21 | 1.22 | 85 | 1016.6 |
| 20260508133444 | 11 | 0 | 0.0 | 0.0 | 0.00 | 2.21 | 1.22 | 85 | 1016.7 |
| 20260508132943 | 11 | 0 | 0.0 | 0.0 | 0.00 | 2.21 | 1.22 | 86 | 1016.7 |
| 20260508132445 | 11 | 0 | 0.0 | 0.0 | 0.00 | 2.21 | 1.22 | 86 | 1016.7 |
| 20260508131943 | 11 | 0 | 0.0 | 0.0 | 0.00 | 2.21 | 1.22 | 86 | 1016.9 |
| 20260508131443 | 11 | 0 | 0.0 | 0.0 | 0.00 | 2.21 | 1.22 | 85 | 1016.9 |
| 20260508130944 | 12 | 0 | 0.0 | 0.0 | 0.00 | 2.21 | 1.22 | 86 | 1016.9 |
| 20260508130444 | 11 | 0 | 0.0 | 0.0 | 0.00 | 2.21 | 1.22 | 86 | 1016.8 |
| 20260508125943 | 11 | 0 | 0.0 | 0.0 | 0.00 | 2.21 | 1.22 | 87 | 1016.8 |
| 20260508125443 | 11 | 0 | 0.0 | 0.0 | 0.00 | 2.21 | 1.22 | 86 | 1016.9 |
| 20260508124943 | 11 | 0 | 0.0 | 0.0 | 0.00 | 2.21 | 1.22 | 86 | 1016.9 |
| 20260508123944 | 11 | 0 | 0.0 | 0.0 | 0.00 | 2.21 | 1.22 | 88 | 1016.9 |
| 20260508123444 | 11 | 0 | 0.0 | 0.0 | 0.00 | 2.21 | 1.22 | 88 | 1016.9 |
| 20260508122943 | 11 | 0 | 0.0 | 0.0 | 0.00 | 2.21 | 1.22 | 88 | 1016.9 |
| 20260508122444 | 12 | 0 | 0.0 | 0.0 | 0.00 | 2.21 | 1.22 | 88 | 1016.9 |
| 20260508121945 | 11 | 0 | 0.0 | 0.0 | 0.00 | 2.21 | 1.22 | 88 | 1016.9 |
| 20260508120943 | 11 | 0 | 0.0 | 0.0 | 0.00 | 2.21 | 1.22 | 89 | 1017.0 |
| 20260508115944 | 11 | 0 | 0.0 | 0.0 | 0.00 | 2.21 | 1.22 | 90 | 1017.0 |
| 20260508114944 | 11 | 0 | 0.0 | 0.0 | 0.00 | 2.21 | 1.22 | 90 | 1016.9 |
| 20260508113944 | 11 | 0 | 0.0 | 0.0 | 0.00 | 2.21 | 1.22 | 90 | 1016.9 |
| 20260508113444 | 11 | 0 | 0.0 | 0.0 | 0.00 | 2.21 | 1.22 | 91 | 1017.0 |
| 20260508112944 | 11 | 0 | 0.0 | 0.0 | 0.00 | 2.21 | 1.22 | 91 | 1016.9 |
| 20260508112444 | 11 | 0 | 0.0 | 0.0 | 0.00 | 2.21 | 1.22 | 91 | 1016.8 |
| 20260508110943 | 11 | 0 | 0.0 | 0.0 | 0.00 | 2.21 | 1.22 | 91 | 1016.7 |
| 20260508110443 | 11 | 0 | 0.0 | 0.0 | 0.00 | 2.21 | 1.22 | 90 | 1016.7 |
| 20260508105944 | 11 | 0 | 0.0 | 0.0 | 0.00 | 2.21 | 1.22 | 90 | 1016.7 |
| 20260508105444 | 11 | 0 | 0.0 | 0.0 | 0.00 | 2.21 | 1.22 | 91 | 1016.7 |
| 20260508104943 | 11 | 0 | 0.0 | 0.0 | 0.00 | 2.21 | 1.22 | 91 | 1016.7 |
| 20260508104444 | 11 | 0 | 0.0 | 0.0 | 0.00 | 2.21 | 1.22 | 91 | 1016.6 |
| 20260508103945 | 11 | 0 | 0.0 | 0.0 | 0.00 | 2.21 | 1.22 | 91 | 1016.6 |
| 20260508103444 | 11 | 0 | 0.0 | 0.0 | 0.00 | 2.21 | 1.22 | 92 | 1016.6 |
| 20260508102944 | 11 | 0 | 0.0 | 0.0 | 0.00 | 2.21 | 1.22 | 93 | 1016.6 |
| 20260508102445 | 11 | 0 | 0.0 | 0.0 | 0.00 | 2.21 | 1.22 | 92 | 1016.5 |
| 20260508101944 | 11 | 0 | 0.0 | 0.0 | 0.00 | 2.21 | 1.22 | 93 | 1016.5 |
| 20260508101444 | 11 | 0 | 0.0 | 0.0 | 0.00 | 2.21 | 1.22 | 93 | 1016.6 |
| 20260508100944 | 11 | 0 | 0.0 | 0.0 | 0.00 | 2.21 | 1.22 | 93 | 1016.5 |
| 20260508100444 | 11 | 0 | 0.0 | 0.0 | 0.00 | 2.21 | 1.22 | 93 | 1016.5 |
| 20260508095945 | 11 | 0 | 0.0 | 0.0 | 0.00 | 2.21 | 1.22 | 93 | 1016.6 |
| 20260508095444 | 11 | 0 | 0.0 | 0.0 | 0.00 | 2.21 | 1.22 | 94 | 1016.6 |
| 20260508094944 | 11 | 0 | 0.0 | 0.0 | 0.00 | 2.21 | 1.22 | 94 | 1016.6 |
| 20260508094444 | 11 | 0 | 0.0 | 0.0 | 0.00 | 2.21 | 1.22 | 94 | 1016.6 |
| 20260508093944 | 11 | 0 | 0.0 | 0.0 | 0.00 | 2.21 | 1.22 | 94 | 1016.6 |
| 20260508093444 | 11 | 0 | 0.0 | 0.0 | 0.00 | 2.21 | 1.22 | 94 | 1016.6 |
| 20260508092945 | 11 | 0 | 0.0 | 0.0 | 0.00 | 2.21 | 1.22 | 95 | 1016.7 |
| 20260508092446 | 10 | 0 | 0.0 | 0.0 | 0.00 | 2.21 | 1.22 | 94 | 1016.6 |
| 20260508091944 | 10 | 0 | 0.0 | 0.0 | 0.00 | 2.21 | 1.22 | 95 | 1016.6 |
| 20260508091444 | 10 | 0 | 0.0 | 0.0 | 0.00 | 2.21 | 1.22 | 95 | 1016.6 |
| 20260508090944 | 10 | 0 | 0.0 | 0.0 | 0.00 | 2.21 | 1.22 | 95 | 1016.6 |
| 20260508090445 | 10 | 0 | 0.0 | 0.0 | 0.00 | 2.21 | 1.22 | 95 | 1016.6 |
| 20260508084944 | 10 | 0 | 0.0 | 0.0 | 0.00 | 2.21 | 1.22 | 95 | 1016.5 |
| 20260508084444 | 10 | 0 | 0.0 | 0.0 | 0.00 | 2.21 | 1.22 | 95 | 1016.5 |
| 20260508083944 | 10 | 0 | 0.0 | 0.0 | 0.00 | 2.21 | 1.22 | 95 | 1016.5 |
| 20260508083445 | 10 | 0 | 0.0 | 0.0 | 0.00 | 2.21 | 1.22 | 95 | 1016.5 |
| 20260508082445 | 10 | 0 | 0.0 | 0.0 | 0.00 | 2.21 | 1.22 | 95 | 1016.4 |
| 20260508081945 | 10 | 0 | 0.0 | 0.0 | 0.00 | 2.21 | 1.22 | 95 | 1016.4 |
| 20260508081444 | 10 | 0 | 0.0 | 0.0 | 0.00 | 2.21 | 1.22 | 95 | 1016.3 |
| 20260508080944 | 10 | 0 | 0.0 | 0.0 | 0.00 | 2.21 | 1.22 | 95 | 1016.2 |
| 20260508075444 | 10 | 0 | 0.0 | 0.0 | 0.00 | 2.21 | 1.22 | 95 | 1016.0 |
| 20260508074946 | 10 | 0 | 0.0 | 0.0 | 0.00 | 2.21 | 1.22 | 95 | 1015.9 |
| 20260508074445 | 10 | 0 | 0.0 | 0.0 | 0.00 | 2.21 | 1.22 | 95 | 1015.9 |
| 20260508073444 | 10 | 0 | 0.0 | 0.0 | 0.00 | 2.21 | 1.22 | 95 | 1015.7 |
| 20260508072944 | 10 | 0 | 0.0 | 0.0 | 0.03 | 2.21 | 1.22 | 95 | 1015.8 |
| 20260508072445 | 10 | 0 | 0.0 | 0.0 | 0.03 | 2.21 | 1.22 | 95 | 1015.8 |
| 20260508071444 | 10 | 0 | 0.0 | 0.0 | 0.05 | 2.21 | 1.22 | 95 | 1015.7 |
| 20260508070945 | 10 | 0 | 0.0 | 0.0 | 0.05 | 2.21 | 1.22 | 95 | 1015.6 |
| 20260508065946 | 10 | 0 | 0.0 | 0.0 | 0.10 | 2.21 | 1.22 | 95 | 1015.6 |
| 20260508065446 | 10 | 0 | 0.0 | 0.0 | 0.10 | 2.21 | 1.22 | 95 | 1015.4 |
| 20260508064445 | 10 | 0 | 0.0 | 0.0 | 0.10 | 2.21 | 1.22 | 95 | 1015.4 |
| 20260508063946 | 10 | 0 | 0.0 | 0.0 | 0.10 | 2.21 | 1.22 | 95 | 1015.4 |
| 20260508063444 | 10 | 0 | 0.0 | 0.0 | 0.10 | 2.21 | 1.22 | 95 | 1015.3 |
| 20260508062944 | 10 | 0 | 0.0 | 0.0 | 0.08 | 2.18 | 1.19 | 95 | 1015.3 |
| 20260508062445 | 10 | 0 | 0.0 | 0.0 | 0.08 | 2.18 | 1.19 | 95 | 1015.3 |
| 20260508061944 | 10 | 0 | 0.0 | 0.0 | 0.05 | 2.16 | 1.17 | 95 | 1015.2 |
| 20260508061445 | 10 | 0 | 0.0 | 0.0 | 0.05 | 2.13 | 1.17 | 95 | 1015.3 |
| 20260508060944 | 9 | 0 | 0.0 | 0.0 | 0.03 | 2.11 | 1.14 | 95 | 1015.5 |
| 20260508055946 | 9 | 0 | 0.0 | 0.0 | 0.00 | 2.11 | 1.12 | 95 | 1015.4 |
| 20260508055445 | 9 | 0 | 0.0 | 0.0 | 0.00 | 2.11 | 1.12 | 95 | 1015.4 |
| 20260508054944 | 9 | 0 | 0.0 | 0.0 | 0.00 | 2.11 | 1.12 | 95 | 1015.3 |
| 20260508054445 | 9 | 0 | 0.0 | 0.0 | 0.00 | 2.11 | 1.12 | 95 | 1015.3 |
| 20260508053945 | 10 | 0 | 0.0 | 0.0 | 0.00 | 2.11 | 1.12 | 95 | 1015.1 |
| 20260508053445 | 10 | 0 | 0.0 | 0.0 | 0.00 | 2.11 | 1.12 | 95 | 1015.1 |
| 20260508052446 | 10 | 0 | 0.0 | 0.0 | 0.00 | 2.11 | 1.12 | 95 | 1015.0 |
| 20260508051946 | 10 | 0 | 0.0 | 0.0 | 0.00 | 2.11 | 1.12 | 95 | 1014.9 |
| 20260508051445 | 10 | 0 | 0.0 | 0.0 | 0.00 | 2.11 | 1.12 | 95 | 1014.8 |
| 20260508045945 | 10 | 0 | 0.0 | 0.0 | 0.03 | 2.11 | 1.12 | 95 | 1014.9 |
| 20260508045447 | 10 | 0 | 0.0 | 0.0 | 0.03 | 2.11 | 1.12 | 95 | 1014.8 |
| 20260508044946 | 10 | 0 | 0.0 | 0.0 | 0.03 | 2.11 | 1.12 | 95 | 1014.7 |
| 20260508044445 | 10 | 0 | 0.0 | 0.0 | 0.03 | 2.11 | 1.12 | 95 | 1014.6 |
| 20260508043945 | 10 | 0 | 0.0 | 0.0 | 0.03 | 2.11 | 1.12 | 95 | 1014.7 |
| 20260508043445 | 10 | 0 | 0.0 | 0.0 | 0.03 | 2.11 | 1.12 | 95 | 1014.6 |
| 20260508042945 | 10 | 0 | 0.0 | 0.0 | 0.03 | 2.11 | 1.12 | 95 | 1014.5 |
| 20260508042446 | 10 | 0 | 0.0 | 0.0 | 0.03 | 2.11 | 1.12 | 95 | 1014.6 |
| 20260508041946 | 10 | 0 | 0.0 | 0.0 | 0.03 | 2.11 | 1.12 | 95 | 1014.6 |
| 20260508041446 | 10 | 0 | 0.0 | 0.0 | 0.03 | 2.11 | 1.12 | 95 | 1014.5 |
| 20260508040945 | 10 | 0 | 0.0 | 0.0 | 0.00 | 2.08 | 1.09 | 95 | 1014.4 |
| 20260508040445 | 10 | 0 | 0.0 | 0.0 | 0.00 | 2.08 | 1.09 | 95 | 1014.4 |
| 20260508035946 | 10 | 0 | 0.0 | 0.0 | 0.03 | 2.08 | 1.09 | 94 | 1014.4 |
| 20260508035447 | 10 | 0 | 0.0 | 0.0 | 0.03 | 2.08 | 1.09 | 94 | 1014.4 |
| 20260508034945 | 10 | 0 | 0.0 | 0.0 | 0.03 | 2.08 | 1.09 | 94 | 1014.4 |
| 20260508034445 | 10 | 0 | 0.0 | 0.0 | 0.03 | 2.08 | 1.09 | 94 | 1014.4 |
| 20260508033945 | 10 | 0 | 0.0 | 0.0 | 0.03 | 2.08 | 1.09 | 94 | 1014.4 |
| 20260508033446 | 10 | 0 | 0.0 | 0.0 | 0.03 | 2.08 | 1.09 | 95 | 1014.3 |
| 20260508032946 | 10 | 0 | 0.0 | 0.0 | 0.03 | 2.08 | 1.09 | 95 | 1014.2 |
| 20260508032445 | 10 | 0 | 0.0 | 0.0 | 0.03 | 2.08 | 1.09 | 95 | 1014.1 |
| 20260508031945 | 10 | 0 | 0.0 | 0.0 | 0.05 | 2.08 | 1.09 | 94 | 1014.0 |
| 20260508031445 | 10 | 0 | 0.0 | 0.0 | 0.05 | 2.08 | 1.09 | 94 | 1014.0 |
| 20260508030945 | 10 | 0 | 0.0 | 0.0 | 0.05 | 2.08 | 1.09 | 94 | 1013.9 |
| 20260508030446 | 10 | 0 | 0.0 | 0.0 | 0.05 | 2.08 | 1.09 | 95 | 1013.8 |
| 20260508025946 | 10 | 0 | 0.0 | 0.0 | 0.05 | 2.06 | 1.09 | 95 | 1013.8 |
| 20260508025445 | 10 | 0 | 0.0 | 0.0 | 0.08 | 2.06 | 1.09 | 95 | 1013.8 |
| 20260508024445 | 10 | 0 | 0.0 | 0.0 | 0.13 | 2.06 | 1.09 | 94 | 1013.7 |
| 20260508023947 | 10 | 0 | 0.0 | 0.0 | 0.15 | 2.06 | 1.09 | 94 | 1013.6 |
| 20260508023446 | 10 | 0 | 0.0 | 0.0 | 0.18 | 2.06 | 1.09 | 94 | 1013.5 |
| 20260508022945 | 10 | 0 | 0.0 | 0.0 | 0.23 | 2.06 | 1.09 | 94 | 1013.5 |
| 20260508022446 | 10 | 0 | 0.0 | 0.0 | 0.28 | 2.06 | 1.09 | 94 | 1013.5 |
| 20260508021946 | 10 | 0 | 0.0 | 0.0 | 0.30 | 2.03 | 1.07 | 94 | 1013.5 |
| 20260508021445 | 10 | 0 | 0.0 | 0.0 | 0.33 | 2.03 | 1.07 | 94 | 1013.6 |
| 20260508020446 | 10 | 0 | 0.0 | 0.0 | 0.41 | 2.01 | 1.02 | 94 | 1013.7 |
| 20260508015946 | 10 | 0 | 0.0 | 0.0 | 0.43 | 2.01 | 1.02 | 94 | 1013.8 |
| 20260508015446 | 10 | 0 | 0.0 | 0.0 | 0.46 | 1.98 | 0.99 | 94 | 1013.9 |
| 20260508014946 | 10 | 0 | 0.0 | 0.0 | 0.56 | 1.96 | 0.99 | 94 | 1013.9 |
| 20260508014446 | 10 | 0 | 0.0 | 0.0 | 0.61 | 1.93 | 0.97 | 94 | 1014.0 |
| 20260508013947 | 10 | 0 | 0.0 | 0.0 | 0.61 | 1.93 | 0.94 | 94 | 1014.0 |
| 20260508013446 | 10 | 0 | 0.0 | 0.0 | 0.61 | 1.88 | 0.89 | 94 | 1013.9 |
| 20260508012947 | 10 | 0 | 0.0 | 0.0 | 0.58 | 1.83 | 0.84 | 94 | 1013.9 |
| 20260508012446 | 11 | 0 | 0.0 | 0.0 | 0.56 | 1.78 | 0.79 | 94 | 1013.9 |
| 20260508011446 | 11 | 0 | 0.0 | 0.0 | 0.51 | 1.70 | 0.71 | 94 | 1013.8 |
| 20260508005947 | 11 | 0 | 0.0 | 0.0 | 0.38 | 1.55 | 0.58 | 94 | 1013.8 |
| 20260508005446 | 11 | 0 | 0.0 | 0.0 | 0.51 | 1.52 | 0.53 | 94 | 1013.6 |
| 20260508004946 | 11 | 0 | 0.0 | 0.0 | 0.43 | 1.40 | 0.43 | 94 | 1013.7 |
| 20260508003946 | 11 | 0 | 0.0 | 0.0 | 0.33 | 1.30 | 0.33 | 94 | 1013.5 |
| 20260508003447 | 11 | 0 | 0.0 | 0.0 | 0.28 | 1.27 | 0.28 | 94 | 1013.6 |
| 20260508002946 | 11 | 0 | 0.0 | 0.0 | 0.25 | 1.24 | 0.25 | 94 | 1013.5 |
| 20260508002446 | 11 | 0 | 0.0 | 0.0 | 0.23 | 1.22 | 0.23 | 94 | 1013.5 |
| 20260508001946 | 11 | 0 | 0.0 | 0.0 | 0.23 | 1.19 | 0.23 | 94 | 1013.5 |
| 20260508001446 | 11 | 0 | 0.0 | 0.0 | 0.23 | 1.19 | 0.23 | 94 | 1013.4 |
| 20260508000947 | 11 | 0 | 0.0 | 0.0 | 0.23 | 1.19 | 0.23 | 94 | 1013.4 |
| 20260507235447 | 11 | 0 | 0.0 | 0.0 | 0.05 | 1.02 | 0.05 | 94 | 1013.3 |
| 20260507234946 | 11 | 0 | 0.0 | 0.0 | 0.00 | 0.99 | 0.00 | 94 | 1013.4 |
| 20260507234446 | 11 | 0 | 0.0 | 0.0 | 0.00 | 0.99 | 0.00 | 94 | 1013.4 |
| 20260507233949 | 11 | 0 | 0.0 | 0.0 | 0.00 | 0.99 | 0.00 | 94 | 1013.4 |
| 20260507233446 | 12 | 0 | 0.0 | 0.0 | 0.00 | 0.99 | 0.00 | 94 | 1013.4 |
| 20260507232446 | 12 | 0 | 0.0 | 0.0 | 0.00 | 0.99 | 0.00 | 94 | 1013.4 |
| 20260507231946 | 12 | 0 | 0.0 | 0.0 | 0.00 | 0.99 | 0.00 | 94 | 1013.5 |
| 20260507231446 | 12 | 0 | 0.0 | 0.0 | 0.00 | 0.99 | 0.00 | 94 | 1013.6 |
| 20260507230446 | 12 | 0 | 0.0 | 0.0 | 0.00 | 0.99 | 0.00 | 94 | 1013.6 |
| 20260507225947 | 12 | 0 | 0.0 | 0.0 | 0.00 | 0.99 | 0.00 | 94 | 1013.5 |
| 20260507225446 | 12 | 0 | 0.0 | 0.0 | 0.00 | 0.99 | 0.00 | 94 | 1013.5 |
| 20260507224947 | 12 | 0 | 0.0 | 0.0 | 0.00 | 0.99 | 0.00 | 94 | 1013.6 |
| 20260507224446 | 12 | 0 | 0.0 | 0.0 | 0.00 | 0.99 | 0.00 | 94 | 1013.6 |
| 20260507223947 | 12 | 0 | 0.0 | 0.0 | 0.00 | 0.99 | 0.00 | 94 | 1013.5 |
| 20260507223446 | 12 | 0 | 0.0 | 0.0 | 0.00 | 0.99 | 0.00 | 94 | 1013.5 |
| 20260507222447 | 12 | 0 | 0.0 | 0.0 | 0.00 | 0.99 | 0.00 | 94 | 1013.5 |
| 20260507221946 | 12 | 0 | 0.0 | 0.0 | 0.00 | 0.99 | 0.00 | 94 | 1013.5 |
| 20260507221446 | 12 | 0 | 0.0 | 0.0 | 0.00 | 0.99 | 0.00 | 94 | 1013.4 |
| 20260507220946 | 12 | 0 | 0.0 | 0.0 | 0.00 | 0.99 | 0.00 | 94 | 1013.3 |
| 20260507220447 | 12 | 0 | 0.0 | 0.0 | 0.00 | 0.99 | 0.00 | 94 | 1013.2 |
| 20260507215948 | 12 | 0 | 0.0 | 0.0 | 0.00 | 0.99 | 0.00 | 94 | 1013.2 |
| 20260507215447 | 12 | 0 | 0.0 | 0.0 | 0.00 | 0.99 | 0.99 | 94 | 1013.2 |
| 20260507214946 | 12 | 0 | 0.0 | 0.0 | 0.00 | 0.99 | 0.99 | 94 | 1013.2 |
| 20260507214446 | 12 | 0 | 0.0 | 0.0 | 0.00 | 0.99 | 0.99 | 94 | 1013.3 |
| 20260507213947 | 12 | 0 | 0.0 | 0.0 | 0.00 | 0.99 | 0.99 | 94 | 1013.3 |
| 20260507212947 | 12 | 0 | 0.0 | 0.0 | 0.00 | 0.99 | 0.99 | 93 | 1013.4 |
| 20260507212449 | 12 | 0 | 0.0 | 0.0 | 0.03 | 0.99 | 0.99 | 94 | 1013.3 |
| 20260507211947 | 12 | 0 | 0.0 | 0.0 | 0.03 | 0.99 | 0.99 | 94 | 1013.3 |
| 20260507211447 | 12 | 0 | 0.0 | 0.0 | 0.03 | 0.99 | 0.99 | 93 | 1013.2 |
| 20260507210947 | 12 | 0 | 0.0 | 0.0 | 0.03 | 0.99 | 0.99 | 93 | 1013.2 |
| 20260507210447 | 12 | 0 | 0.0 | 0.0 | 0.03 | 0.99 | 0.99 | 93 | 1013.1 |
| 20260507205447 | 12 | 0 | 0.0 | 0.0 | 0.03 | 0.99 | 0.99 | 93 | 1013.0 |
| 20260507204948 | 12 | 0 | 0.0 | 0.0 | 0.03 | 0.99 | 0.99 | 93 | 1012.9 |
| 20260507204447 | 12 | 0 | 0.0 | 0.0 | 0.03 | 0.99 | 0.99 | 93 | 1012.8 |
| 20260507203447 | 12 | 0 | 0.0 | 0.0 | 0.03 | 0.99 | 0.99 | 93 | 1012.5 |
| 20260507202947 | 12 | 0 | 0.0 | 0.0 | 0.03 | 0.99 | 0.99 | 93 | 1012.4 |
| 20260507201947 | 12 | 0 | 0.0 | 0.0 | 0.00 | 0.97 | 0.97 | 93 | 1012.4 |
| 20260507201447 | 12 | 0 | 0.0 | 0.0 | 0.00 | 0.97 | 0.97 | 93 | 1012.4 |
| 20260507200947 | 12 | 0 | 0.0 | 0.0 | 0.00 | 0.97 | 0.97 | 93 | 1012.4 |
| 20260507200448 | 12 | 0 | 0.0 | 0.0 | 0.00 | 0.97 | 0.97 | 93 | 1012.7 |
| 20260507195947 | 12 | 0 | 0.0 | 0.0 | 0.00 | 0.97 | 0.97 | 93 | 1012.9 |
| 20260507195446 | 12 | 0 | 0.0 | 0.0 | 0.00 | 0.97 | 0.97 | 93 | 1012.8 |
| 20260507194947 | 12 | 0 | 0.0 | 0.0 | 0.00 | 0.97 | 0.97 | 93 | 1012.7 |
| 20260507194447 | 12 | 0 | 0.0 | 0.0 | 0.00 | 0.97 | 0.97 | 93 | 1012.6 |
| 20260507192947 | 12 | 0 | 0.0 | 0.0 | 0.08 | 0.97 | 0.97 | 92 | 1012.2 |
| 20260507192447 | 12 | 0 | 0.0 | 0.0 | 0.15 | 0.97 | 0.97 | 92 | 1012.0 |
| 20260507191947 | 12 | 0 | 0.0 | 0.0 | 0.23 | 0.97 | 0.97 | 92 | 1011.9 |
| 20260507191448 | 12 | 0 | 0.0 | 0.0 | 0.38 | 0.97 | 0.97 | 92 | 1011.9 |
| 20260507190947 | 12 | 0 | 0.0 | 0.0 | 0.51 | 0.97 | 0.97 | 92 | 1011.9 |
| 20260507190448 | 12 | 0 | 0.0 | 0.0 | 0.51 | 0.97 | 0.97 | 92 | 1011.9 |
| 20260507185448 | 12 | 0 | 0.0 | 0.0 | 0.51 | 0.97 | 0.97 | 92 | 1012.0 |
| 20260507184947 | 12 | 0 | 0.0 | 0.0 | 0.51 | 0.97 | 0.97 | 92 | 1012.0 |
| 20260507184447 | 12 | 0 | 0.0 | 0.0 | 0.51 | 0.97 | 0.97 | 92 | 1011.9 |
| 20260507183948 | 12 | 0 | 0.0 | 0.0 | 0.51 | 0.94 | 0.94 | 92 | 1011.8 |
| 20260507182947 | 12 | 0 | 0.0 | 0.0 | 0.43 | 0.86 | 0.86 | 91 | 1011.8 |
| 20260507182448 | 12 | 0 | 0.0 | 0.0 | 0.43 | 0.81 | 0.81 | 91 | 1011.9 |
| 20260507181948 | 12 | 0 | 0.0 | 0.0 | 0.30 | 0.69 | 0.69 | 91 | 1011.9 |